Weather History for KCNM - January, 2013

Change the Weather History Date:

Friday, January 4, 2013

  Actual Average Record
Temperature  
Mean Temperature 28 °F -  
Max Temperature 32 °F 51 °F 70 °F (2007)
Min Temperature 23 °F 25 °F 0 °F (1972)
Degree Days  
Heating Degree Days 37    
Moisture  
Dew Point 26 °F    
Average Humidity 91    
Maximum Humidity 100    
Minimum Humidity 82    
Precipitation  
Precipitation 0.04 in - - ()
Sea Level Pressure  
Sea Level Pressure 30.32 in    
Wind  
Wind Speed 3 mph (SSE)    
Max Wind Speed 10 mph    
Max Gust Speed -    
Visibility 5 miles    
Events Fog , Snow    
Averages and records for this station are not official NWS values.
T = Trace of Precipitation, MM = Missing Value Source: NWS Daily Summary

Daily Weather History Graph

Daily Weather History Graph

Search for Another Location

Airport or City:

Trip Planner

Search our weather history database for the weather conditions in past years. The results will help you decide how hot, cold, wet, or windy it might be!

Date:

Astronomy

Jan. 04, 2013 Rise Set
Actual Time 6:58 AM MST 5:05 PM MST
Civil Twilight 6:32 AM MST 5:32 PM MST
Nautical Twilight 6:01 AM MST 6:03 PM MST
Astronomical Twilight 5:31 AM MST 6:32 PM MST
Moon No Moon Rise 11:09 AM MST
Length of Visible Light 11h 00m
Length of Day
10h 06m
Waning Gibbous, 54% of the Moon is Illuminated
Jan 4
Waning Gibbous
Jan 4
Last Quarter
Jan 11
New
Jan 18
First Quarter
Jan 26
Full

Hourly Weather History & Observations

Time (MST) Temp. Windchill Dew Point Humidity Pressure Visibility Wind Dir Wind Speed Gust Speed Precip Events Conditions
12:53 AM 28.9 °F - 27.0 °F 92% 30.41 in 1.0 mi Calm Calm - 0.02 in Snow Light Snow
1:20 AM 28.4 °F - 26.6 °F 93% 30.38 in 2.0 mi Calm Calm - 0.01 in Snow Light Snow
1:26 AM 28.4 °F - 26.6 °F 93% 30.38 in 2.0 mi Calm Calm - 0.01 in Snow Light Snow
1:53 AM 28.9 °F - 27.0 °F 92% 30.40 in 2.5 mi Calm Calm - 0.01 in Snow Light Snow
2:53 AM 28.9 °F - 27.0 °F 92% 30.40 in 2.0 mi Calm Calm - 0.00 in Snow Light Snow
3:17 AM 28.4 °F - 26.6 °F 93% 30.38 in 3.0 mi Calm Calm - 0.01 in Snow Light Snow
3:53 AM 28.9 °F 25.2 °F 27.0 °F 92% 30.40 in 4.0 mi SE 3.5 mph - 0.01 in Snow Light Snow
4:09 AM 28.4 °F - 26.6 °F 93% 30.37 in 2.5 mi Calm Calm - 0.00 in Snow Light Snow
4:21 AM 28.4 °F - 26.6 °F 93% 30.36 in 4.0 mi Calm Calm - 0.00 in Snow Light Snow
4:31 AM 28.4 °F - 26.6 °F 93% 30.36 in 7.0 mi Calm Calm - 0.00 in   Overcast
4:53 AM 28.9 °F 25.2 °F 27.0 °F 92% 30.39 in 10.0 mi SSE 3.5 mph - 0.00 in   Overcast
5:53 AM 28.9 °F 23.9 °F 27.0 °F 92% 30.38 in 4.0 mi SE 4.6 mph - 0.00 in Snow Light Snow
6:19 AM 28.4 °F 24.6 °F 26.6 °F 93% 30.36 in 3.0 mi SSE 3.5 mph - 0.00 in Snow Light Snow
6:45 AM 28.4 °F - 26.6 °F 93% 30.36 in 4.0 mi Calm Calm - 0.00 in   Overcast
6:53 AM 28.0 °F - 27.0 °F 96% 30.39 in 6.0 mi Calm Calm - 0.00 in   Overcast
7:51 AM 28.4 °F 22.2 °F 26.6 °F 93% 30.37 in 3.0 mi SSE 5.8 mph - N/A   Overcast
7:53 AM 28.0 °F 24.2 °F 27.0 °F 96% 30.40 in 3.0 mi SE 3.5 mph - N/A   Overcast
8:02 AM 28.4 °F 21.2 °F 26.6 °F 93% 30.37 in 2.5 mi SSE 6.9 mph - N/A   Overcast
8:32 AM 28.4 °F 21.2 °F 26.6 °F 93% 30.38 in 4.0 mi SSE 6.9 mph - N/A   Overcast
8:53 AM 28.9 °F 21.9 °F 27.0 °F 92% 30.42 in 8.0 mi SSE 6.9 mph - N/A   Overcast
9:09 AM 28.4 °F 21.2 °F 26.6 °F 93% 30.39 in 8.0 mi SSE 6.9 mph - N/A   Overcast
9:53 AM 30.0 °F 22.4 °F 27.0 °F 88% 30.42 in 10.0 mi SSE 8.1 mph - N/A   Overcast
10:46 AM 30.2 °F 23.4 °F 26.6 °F 86% 30.38 in 9.0 mi SSE 6.9 mph - N/A   Overcast
10:53 AM 30.0 °F 23.2 °F 27.0 °F 88% 30.40 in 10.0 mi SSE 6.9 mph - N/A   Overcast
11:53 AM 30.9 °F 24.3 °F 28.0 °F 89% 30.36 in 10.0 mi SSE 6.9 mph - N/A   Overcast
12:53 PM 30.9 °F 26.2 °F 27.0 °F 85% 30.33 in 5.0 mi South 4.6 mph - 0.00 in Snow Light Snow
1:53 PM 32.0 °F 26.4 °F 27.0 °F 82% 30.30 in 10.0 mi SSE 5.8 mph - 0.00 in   Overcast
2:34 PM 32.0 °F 25.6 °F 28.4 °F 87% 30.26 in 2.0 mi SE 6.9 mph - 0.00 in Snow Light Snow
2:42 PM 32.0 °F 25.6 °F 28.4 °F 87% 30.26 in 3.0 mi SE 6.9 mph - 0.00 in Snow Light Snow
2:53 PM 32.0 °F 24.2 °F 28.0 °F 85% 30.28 in 2.0 mi SE 9.2 mph - 0.00 in Snow Light Snow
3:03 PM 30.2 °F 23.4 °F 28.4 °F 93% 30.26 in 2.5 mi SSE 6.9 mph - 0.00 in Snow Light Snow
3:11 PM 30.2 °F 22.6 °F 28.4 °F 93% 30.26 in 4.0 mi SSE 8.1 mph - 0.00 in Snow Light Snow
3:53 PM 30.9 °F 23.5 °F 28.0 °F 89% 30.28 in 10.0 mi SSE 8.1 mph - 0.00 in   Mostly Cloudy
4:04 PM 30.2 °F 23.4 °F 26.6 °F 86% 30.25 in 10.0 mi SSE 6.9 mph - N/A   Mostly Cloudy
4:14 PM 30.2 °F 24.3 °F 26.6 °F 86% 30.26 in 10.0 mi SSE 5.8 mph - N/A   Mostly Cloudy
4:53 PM 30.9 °F 23.5 °F 28.0 °F 89% 30.28 in 10.0 mi SE 8.1 mph - N/A   Overcast
5:53 PM 30.9 °F 25.2 °F 27.0 °F 85% 30.29 in 10.0 mi SSE 5.8 mph - N/A   Overcast
6:49 PM 28.4 °F 24.6 °F 26.6 °F 93% 30.26 in 10.0 mi South 3.5 mph - N/A   Scattered Clouds
6:53 PM 28.0 °F - 26.1 °F 92% 30.30 in 10.0 mi Calm Calm - N/A   Partly Cloudy
7:07 PM 28.4 °F - 26.6 °F 93% 30.27 in 9.0 mi Calm Calm - N/A   Scattered Clouds
7:19 PM 26.6 °F - 24.8 °F 93% 30.27 in 9.0 mi Calm Calm - N/A   Mostly Cloudy
7:53 PM 25.0 °F - 24.1 °F 96% 30.31 in 8.0 mi Calm Calm - N/A   Mostly Cloudy
8:02 PM 24.8 °F 20.5 °F 23.0 °F 93% 30.27 in 8.0 mi SSW 3.5 mph - N/A   Mostly Cloudy
8:21 PM 28.4 °F 21.2 °F 26.6 °F 93% 30.26 in 9.0 mi South 6.9 mph - N/A   Overcast
8:43 PM 28.4 °F 19.1 °F 26.6 °F 93% 30.26 in 1.5 mi SSE 10.4 mph - N/A   Overcast
8:53 PM 28.0 °F 20.0 °F 26.1 °F 92% 30.28 in 0.5 mi SSE 8.1 mph - N/A Fog Light Freezing Fog
9:06 PM 28.4 °F 19.7 °F 26.6 °F 93% 30.26 in 0.2 mi South 9.2 mph - N/A Fog Light Freezing Fog
9:53 PM 27.0 °F - 26.1 °F 96% 30.28 in 0.2 mi Calm Calm - N/A Fog Light Freezing Fog
10:44 PM 26.6 °F 20.0 °F 24.8 °F 93% 30.23 in 0.2 mi SE 5.8 mph - N/A Fog Light Freezing Fog
10:53 PM 26.1 °F 20.5 °F 25.0 °F 96% 30.27 in 0.2 mi SSE 4.6 mph - N/A Fog Light Freezing Fog
11:12 PM 24.8 °F - 24.8 °F 100% 30.24 in 0.2 mi Calm Calm - N/A Fog Light Freezing Fog
11:46 PM 24.8 °F - 21.2 °F 86% 30.23 in 0.2 mi Calm Calm - N/A Fog Light Freezing Fog
11:53 PM 23.0 °F - 21.0 °F 92% 30.27 in 0.2 mi Calm Calm - N/A Fog Light Freezing Fog